CZ-6 R/B

Last updated on Thu Dec 03 2020 00:02:03 GMT+0000 (Coordinated Universal Time)

1 46841U 20079Q 20336.67869575 .00541051 23338-5 33461-3 0 9998 2 46841 97.2510 50.6312 0131711 312.1829 46.8396 16.01490575 4048

Satellite not in orbit